Regional Weather Roundup
Issued by NWS Midland/Odessa, TX

Skip options and go directly to product.
Home | Oldest Version | Previous Version | Current Version | All | Text Only | Save Text | Print | Product List | Glossary On

Skip product version selection by date and time.   
339
ASUS44 KMAF 230610
RWRMAF
MIDLAND AREA WEATHER ROUNDUP
NATIONAL WEATHER SERVICE MIDLAND TX
100 AM CDT WED JUL 23 2014

...IN SOUTHWEST TEXAS AND SOUTHEAST NEW MEXICO...

CITY           SKY/WX    TMP DP  RH WIND       PRES   REMARKS
ALPINE         PTCLDY    76  58  53 SE6       30.32S
ANDREWS        NOT AVBL
ARTESIA        MOCLDY    84  57  39 SE5       30.20S
BIG SPRING     MOCLDY    82  61  49 E6        30.19R
CARLSBAD       MOCLDY    87  54  32 E8        30.17R
DRYDEN           N/A     87  63  44 E7        30.11R
FORT STOCKTON  PTCLDY    81  60  48 S7        30.16S
GUAD PASS      MOCLDY    75  55  49 NE15      30.35R
HOBBS          MOCLDY    79  59  50 E8        30.23S
MARFA          MOCLDY    72  57  60 E9        30.31S
MIDLAND AIRPK  PTCLDY    84  61  45 SE7       30.18S
MIDLAND INTL   PTCLDY    82  63  52 SE9       30.17S
ODESSA         PTCLDY    83  60  45 SE9       30.18S
PECOS          MOCLDY    85  57  37 SE9       30.12S
PRESIDIO       FAIR      87  59  38 MISG      30.10R
SEMINOLE       PTCLDY    77  60  55 E3        30.22S
SNYDER         MOCLDY    82  61  50 SE8       30.16S
WINK           PTCLDY    85  58  39 E9        30.13S
$$
...OTHER STATIONS IN TEXAS...

CITY           SKY/WX    TMP DP  RH WIND       PRES   REMARKS
ABILENE        MOCLDY    83  67  58 SE8       30.13R
AMARILLO       PTCLDY    75  63  66 S6        30.25S
AUSTIN         PTCLDY    77  73  87 CALM      30.04S
BROWNSVILLE    CLEAR     80  77  90 SE6       30.01S
CORPUS CHRISTI MOCLDY    79  76  90 SE5       30.01S
DALLAS FTW     CLEAR     82  70  66 SE6       30.07R
DEL RIO        CLEAR     85  64  49 E7        30.03S
EL PASO        CLOUDY    75  68  78 CALM      30.22R
HOUSTON INT    MOCLDY    80  74  81 CALM      30.03R
LUBBOCK        CLOUDY    78  63  59 E6        30.21S
SAN ANGELO     CLEAR     80  65  59 CALM      30.12R
SAN ANTONIO    PTCLDY    82  73  74 SE7       30.05S
WACO           CLEAR     80  72  76 E6        30.05S
WICHITA FALLS  NOT AVBL
$$
...OTHER LOCATIONS IN NEW MEXICO...

CITY           SKY/WX    TMP DP  RH WIND       PRES   REMARKS
ALAMAGORDO     MOCLDY    75  59  57 S7        30.24S
ALBUQUERQUE    MOCLDY    77  52  41 W7        30.33F
CANNON AFB     MOCLDY    72  64  77 E3        30.29R
CLOVIS         NOT AVBL
HOLLOMAN AFB   MOCLDY    80  55  41 S7        30.22S
ROSWELL        CLOUDY    85  58  39 CALM      30.21F
RUIDOSO        LGT RAIN  63  57  82 MISG      30.50R
SANTA FE       PTCLDY    64  51  62 N3        30.42F
TRUTH OR CONSE CLOUDY    77  57  50 W8        30.30S
TUCUMCARI      MOCLDY    74  62  66 W6        30.25R
$$

USA.gov is the U.S. government's official web portal to all federal, state and local government web resources and services.